| time (UTC) | temp C | wind direction | speed KPH | gust KPH | rain 1hr cm | rain 24hr cm | rain mn cm | humidity % | barometer mb |
| 20260904013537 | 21 | 301 | 14.5 | 16.1 | 0.00 | 0.00 | 0.00 | 77 | 1010.4 |
| 20260904013027 | 21 | 192 | 4.8 | 16.1 | 0.00 | 0.00 | 0.00 | 78 | 1010.4 |
| 20260904012505 | 21 | 236 | 9.7 | 14.5 | 0.00 | 0.00 | 0.00 | 77 | 1010.4 |
| 20260904011949 | 21 | 266 | 8.0 | 17.7 | 0.00 | 0.00 | 0.00 | 77 | 1010.4 |
| 20260904010950 | 21 | 250 | 14.5 | 17.7 | 0.00 | 0.00 | 0.00 | 75 | 1010.4 |
| 20260904010441 | 21 | 238 | 12.9 | 17.7 | 0.00 | 0.00 | 0.00 | 74 | 1010.4 |
| 20260904005936 | 22 | 215 | 8.0 | 20.9 | 0.00 | 0.00 | 0.00 | 72 | 1010.4 |
| 20260904005432 | 22 | 168 | 14.5 | 20.9 | 0.00 | 0.00 | 0.00 | 72 | 1010.4 |
| 20260904004914 | 22 | 247 | 9.7 | 16.1 | 0.00 | 0.00 | 0.00 | 72 | 1010.7 |
| 20260904004408 | 22 | 240 | 11.3 | 16.1 | 0.00 | 0.00 | 0.00 | 72 | 1010.7 |
| 20260904003902 | 22 | 219 | 8.0 | 20.9 | 0.00 | 0.00 | 0.00 | 72 | 1010.4 |
| 20260904002848 | 22 | 249 | 11.3 | 20.9 | 0.00 | 0.00 | 0.00 | 73 | 1010.4 |
| 20260904002342 | 22 | 228 | 14.5 | 22.5 | 0.00 | 0.00 | 0.00 | 72 | 1010.7 |
| 20260904001837 | 22 | 219 | 8.0 | 22.5 | 0.00 | 0.00 | 0.00 | 73 | 1010.7 |
| 20260904000822 | 22 | 270 | 8.0 | 22.5 | 0.00 | 0.00 | 0.00 | 72 | 1010.7 |
| 20260904000318 | 22 | 245 | 9.7 | 22.5 | 0.00 | 0.00 | 0.00 | 72 | 1010.7 |
| 20260903235809 | 22 | 250 | 16.1 | 22.5 | 0.00 | 0.00 | 0.00 | 72 | 1010.7 |
| 20260903234756 | 22 | 217 | 14.5 | 25.7 | 0.00 | 0.00 | 0.00 | 71 | 1010.7 |
| 20260903234250 | 22 | 228 | 6.4 | 25.7 | 0.00 | 0.00 | 0.00 | 72 | 1010.7 |
| 20260903233743 | 22 | 225 | 9.7 | 17.7 | 0.00 | 0.00 | 0.00 | 70 | 1010.7 |
| 20260903233237 | 23 | 253 | 9.7 | 17.7 | 0.00 | 0.00 | 0.00 | 70 | 1010.7 |
| 20260903232730 | 23 | 213 | 9.7 | 20.9 | 0.00 | 0.00 | 0.00 | 70 | 1011.1 |
| 20260903232223 | 22 | 254 | 6.4 | 24.1 | 0.00 | 0.00 | 0.00 | 71 | 1011.1 |
| 20260903231211 | 22 | 200 | 12.9 | 22.5 | 0.00 | 0.00 | 0.00 | 70 | 1011.1 |
| 20260903230704 | 22 | 277 | 12.9 | 22.5 | 0.00 | 0.00 | 0.00 | 72 | 1011.1 |
| 20260903230157 | 22 | 231 | 14.5 | 22.5 | 0.00 | 0.00 | 0.00 | 72 | 1011.1 |
| 20260903225651 | 23 | 241 | 16.1 | 22.5 | 0.00 | 0.00 | 0.00 | 71 | 1011.1 |
| 20260903225144 | 23 | 238 | 17.7 | 27.4 | 0.00 | 0.00 | 0.00 | 70 | 1011.1 |
| 20260903224639 | 22 | 225 | 9.7 | 27.4 | 0.00 | 0.00 | 0.00 | 72 | 1011.4 |
| 20260903224131 | 22 | 205 | 16.1 | 24.1 | 0.00 | 0.00 | 0.00 | 71 | 1011.1 |
| 20260903223625 | 22 | 232 | 14.5 | 24.1 | 0.00 | 0.00 | 0.00 | 71 | 1011.4 |
| 20260903223118 | 22 | 265 | 14.5 | 24.1 | 0.00 | 0.00 | 0.00 | 72 | 1011.4 |
| 20260903222612 | 22 | 237 | 17.7 | 22.5 | 0.00 | 0.00 | 0.00 | 71 | 1011.4 |
| 20260903222106 | 22 | 242 | 12.9 | 24.1 | 0.00 | 0.00 | 0.00 | 70 | 1011.4 |
| 20260903221558 | 22 | 272 | 12.9 | 25.7 | 0.00 | 0.00 | 0.00 | 71 | 1011.8 |
| 20260903221054 | 22 | 252 | 9.7 | 25.7 | 0.00 | 0.00 | 0.00 | 70 | 1011.8 |
| 20260903220546 | 23 | 220 | 16.1 | 22.5 | 0.00 | 0.00 | 0.00 | 69 | 1011.8 |
| 20260903220040 | 22 | 278 | 12.9 | 24.1 | 0.00 | 0.00 | 0.00 | 70 | 1011.8 |
| 20260903215532 | 22 | 277 | 14.5 | 24.1 | 0.00 | 0.00 | 0.00 | 69 | 1011.8 |
| 20260903214520 | 23 | 294 | 12.9 | 22.5 | 0.00 | 0.00 | 0.00 | 69 | 1011.8 |
| 20260903214012 | 23 | 228 | 14.5 | 22.5 | 0.00 | 0.00 | 0.00 | 67 | 1011.8 |
| 20260903213506 | 23 | 222 | 9.7 | 17.7 | 0.00 | 0.00 | 0.00 | 68 | 1011.8 |
| 20260903213000 | 23 | 213 | 11.3 | 22.5 | 0.00 | 0.00 | 0.00 | 67 | 1011.8 |
| 20260903212454 | 23 | 247 | 9.7 | 27.4 | 0.00 | 0.00 | 0.00 | 68 | 1011.8 |
| 20260903211947 | 23 | 235 | 17.7 | 27.4 | 0.00 | 0.00 | 0.00 | 67 | 1011.8 |
| 20260903211440 | 23 | 213 | 12.9 | 20.9 | 0.00 | 0.00 | 0.00 | 65 | 1011.8 |
| 20260903210934 | 23 | 241 | 8.0 | 20.9 | 0.00 | 0.00 | 0.00 | 67 | 1011.8 |
| 20260903210427 | 23 | 287 | 11.3 | 24.1 | 0.00 | 0.00 | 0.00 | 67 | 1011.8 |
| 20260903205920 | 23 | 246 | 6.4 | 24.1 | 0.00 | 0.00 | 0.00 | 67 | 1012.1 |
| 20260903205414 | 23 | 254 | 9.7 | 22.5 | 0.00 | 0.00 | 0.00 | 67 | 1012.1 |
| 20260903204908 | 23 | 202 | 12.9 | 22.5 | 0.00 | 0.00 | 0.00 | 68 | 1012.1 |
| 20260903204401 | 23 | 251 | 8.0 | 17.7 | 0.00 | 0.00 | 0.00 | 68 | 1012.1 |
| 20260903203348 | 22 | 256 | 9.7 | 24.1 | 0.00 | 0.00 | 0.00 | 68 | 1012.1 |
| 20260903202335 | 23 | 270 | 8.0 | 25.7 | 0.00 | 0.00 | 0.00 | 65 | 1012.1 |
| 20260903201828 | 23 | 208 | 9.7 | 25.7 | 0.00 | 0.00 | 0.00 | 67 | 1012.1 |
| 20260903200815 | 23 | 247 | 16.1 | 22.5 | 0.00 | 0.00 | 0.00 | 67 | 1012.4 |
| 20260903200309 | 23 | 277 | 9.7 | 22.5 | 0.00 | 0.00 | 0.00 | 69 | 1012.4 |
| 20260903195803 | 23 | 238 | 12.9 | 20.9 | 0.00 | 0.00 | 0.00 | 68 | 1012.4 |
| 20260903195255 | 23 | 230 | 12.9 | 20.9 | 0.00 | 0.00 | 0.00 | 68 | 1012.4 |
| 20260903194243 | 23 | 235 | 8.0 | 22.5 | 0.00 | 0.00 | 0.00 | 68 | 1012.4 |
| 20260903193737 | 23 | 194 | 8.0 | 22.5 | 0.00 | 0.00 | 0.00 | 69 | 1012.4 |
| 20260903193230 | 22 | 210 | 16.1 | 22.5 | 0.00 | 0.00 | 0.00 | 70 | 1012.8 |
| 20260903192724 | 23 | 259 | 16.1 | 22.5 | 0.00 | 0.00 | 0.00 | 69 | 1012.8 |
| 20260903192216 | 22 | 231 | 12.9 | 20.9 | 0.00 | 0.00 | 0.00 | 70 | 1012.8 |
| 20260903191710 | 22 | 220 | 14.5 | 22.5 | 0.00 | 0.00 | 0.00 | 69 | 1012.8 |
| 20260903191203 | 22 | 233 | 16.1 | 22.5 | 0.00 | 0.00 | 0.00 | 69 | 1012.8 |
| 20260903185644 | 23 | 256 | 12.9 | 20.9 | 0.00 | 0.00 | 0.00 | 68 | 1013.1 |
| 20260903185140 | 23 | 306 | 9.7 | 17.7 | 0.00 | 0.00 | 0.00 | 67 | 1013.1 |
| 20260903184125 | 23 | 218 | 6.4 | 20.9 | 0.00 | 0.00 | 0.00 | 67 | 1013.1 |
| 20260903183618 | 23 | 327 | 6.4 | 20.9 | 0.00 | 0.00 | 0.00 | 68 | 1013.1 |
| 20260903183111 | 23 | 290 | 6.4 | 17.7 | 0.00 | 0.00 | 0.00 | 69 | 1013.1 |
| 20260903182605 | 23 | 226 | 6.4 | 16.1 | 0.00 | 0.00 | 0.00 | 67 | 1013.4 |
| 20260903181552 | 23 | 299 | 0.0 | 11.3 | 0.00 | 0.00 | 0.00 | 64 | 1013.4 |
| 20260903181046 | 24 | 177 | 6.4 | 16.1 | 0.00 | 0.00 | 0.00 | 64 | 1013.4 |
| 20260903180539 | 23 | 199 | 12.9 | 16.1 | 0.00 | 0.00 | 0.00 | 63 | 1013.4 |
| 20260903175526 | 25 | 181 | 6.4 | 11.3 | 0.00 | 0.00 | 0.00 | 60 | 1013.4 |
| 20260903175020 | 23 | 203 | 3.2 | 9.7 | 0.00 | 0.00 | 0.00 | 62 | 1013.4 |
| 20260903174513 | 23 | 193 | 4.8 | 14.5 | 0.00 | 0.00 | 0.00 | 63 | 1013.4 |
| 20260903173500 | 23 | 111 | 4.8 | 12.9 | 0.00 | 0.00 | 0.00 | 65 | 1013.4 |
| 20260903172954 | 23 | 199 | 4.8 | 11.3 | 0.00 | 0.00 | 0.00 | 66 | 1013.4 |
| 20260903171434 | 24 | 161 | 6.4 | 11.3 | 0.00 | 0.00 | 0.00 | 61 | 1013.4 |
| 20260903170928 | 23 | 328 | 1.6 | 9.7 | 0.00 | 0.00 | 0.00 | 63 | 1013.4 |
| 20260903170422 | 23 | 317 | 4.8 | 11.3 | 0.00 | 0.00 | 0.00 | 62 | 1013.4 |
| 20260903165914 | 22 | 189 | 1.6 | 11.3 | 0.00 | 0.00 | 0.00 | 69 | 1013.4 |
| 20260903165408 | 21 | 256 | 0.0 | 9.7 | 0.00 | 0.00 | 0.00 | 72 | 1013.4 |
| 20260903164902 | 21 | 241 | 0.0 | 11.3 | 0.00 | 0.00 | 0.00 | 73 | 1013.4 |
| 20260903164355 | 21 | 144 | 6.4 | 6.4 | 0.00 | 0.00 | 0.00 | 72 | 1013.4 |
| 20260903163849 | 22 | 139 | 4.8 | 9.7 | 0.00 | 0.00 | 0.00 | 71 | 1013.4 |
| 20260903163342 | 21 | 12 | 1.6 | 9.7 | 0.00 | 0.00 | 0.00 | 72 | 1013.4 |
| 20260903162836 | 21 | 193 | 3.2 | 9.7 | 0.00 | 0.00 | 0.00 | 72 | 1013.4 |
| 20260903162329 | 21 | 190 | 6.4 | 9.7 | 0.00 | 0.00 | 0.00 | 72 | 1013.4 |
| 20260903161823 | 22 | 158 | 6.4 | 9.7 | 0.00 | 0.00 | 0.00 | 70 | 1013.4 |
| 20260903161316 | 21 | 107 | 3.2 | 9.7 | 0.00 | 0.00 | 0.00 | 72 | 1013.4 |
| 20260903160810 | 22 | 220 | 6.4 | 11.3 | 0.00 | 0.00 | 0.00 | 71 | 1013.4 |
| 20260903160304 | 21 | 146 | 6.4 | 11.3 | 0.00 | 0.00 | 0.00 | 73 | 1013.4 |
| 20260903155757 | 21 | 89 | 8.0 | 9.7 | 0.00 | 0.00 | 0.00 | 72 | 1013.4 |
| 20260903155251 | 21 | 120 | 3.2 | 9.7 | 0.00 | 0.00 | 0.00 | 73 | 1013.4 |
| 20260903154744 | 21 | 169 | 3.2 | 9.7 | 0.00 | 0.00 | 0.00 | 74 | 1013.4 |
| 20260903154237 | 21 | 100 | 4.8 | 9.7 | 0.00 | 0.00 | 0.00 | 72 | 1013.4 |
| 20260903153731 | 21 | 128 | 4.8 | 9.7 | 0.00 | 0.00 | 0.00 | 74 | 1013.4 |
| 20260903153225 | 21 | 108 | 4.8 | 6.4 | 0.00 | 0.00 | 0.00 | 75 | 1013.4 |
| 20260903152717 | 20 | 142 | 4.8 | 6.4 | 0.00 | 0.00 | 0.00 | 77 | 1013.4 |
| 20260903152211 | 20 | 174 | 6.4 | 6.4 | 0.00 | 0.00 | 0.00 | 77 | 1013.4 |
| 20260903151705 | 21 | 136 | 3.2 | 9.7 | 0.00 | 0.00 | 0.00 | 76 | 1013.1 |
| 20260903150652 | 21 | 137 | 4.8 | 11.3 | 0.00 | 0.00 | 0.00 | 75 | 1013.1 |
| 20260903150145 | 21 | 299 | 0.0 | 3.2 | 0.00 | 0.00 | 0.00 | 76 | 1013.1 |
| 20260903145640 | 21 | 29 | 1.6 | 3.2 | 0.00 | 0.00 | 0.00 | 77 | 1013.1 |
| 20260903144626 | 20 | 162 | 3.2 | 6.4 | 0.00 | 0.00 | 0.00 | 78 | 1013.1 |
| 20260903144122 | 20 | 247 | 1.6 | 4.8 | 0.00 | 0.00 | 0.00 | 78 | 1013.1 |
| 20260903143613 | 20 | 280 | 0.0 | 6.4 | 0.00 | 0.00 | 0.00 | 79 | 1013.1 |
| 20260903143106 | 20 | 94 | 1.6 | 6.4 | 0.00 | 0.00 | 0.00 | 79 | 1013.1 |
| 20260903142600 | 20 | 111 | 3.2 | 4.8 | 0.00 | 0.00 | 0.00 | 79 | 1012.8 |
| 20260903141547 | 20 | 52 | 1.6 | 4.8 | 0.00 | 0.00 | 0.00 | 81 | 1012.8 |
| 20260903141041 | 20 | 50 | 0.0 | 4.8 | 0.00 | 0.00 | 0.00 | 82 | 1012.8 |
| 20260903140533 | 19 | 306 | 1.6 | 6.4 | 0.00 | 0.00 | 0.00 | 82 | 1012.8 |
| 20260903140027 | 19 | 164 | 1.6 | 6.4 | 0.00 | 0.00 | 0.00 | 82 | 1012.8 |
| 20260903135520 | 19 | 63 | 3.2 | 6.4 | 0.00 | 0.00 | 0.00 | 83 | 1012.8 |
| 20260903135014 | 19 | 15 | 1.6 | 9.7 | 0.00 | 0.00 | 0.00 | 83 | 1012.8 |
| 20260903134508 | 19 | 180 | 4.8 | 9.7 | 0.00 | 0.00 | 0.00 | 84 | 1012.4 |
| 20260903134002 | 19 | 64 | 4.8 | 9.7 | 0.00 | 0.00 | 0.00 | 84 | 1012.4 |
| 20260903133454 | 19 | 106 | 6.4 | 9.7 | 0.00 | 0.00 | 0.00 | 84 | 1012.4 |
| 20260903132948 | 19 | 7 | 0.0 | 9.7 | 0.00 | 0.00 | 0.00 | 84 | 1012.4 |
| 20260903131936 | 19 | 108 | 4.8 | 9.7 | 0.00 | 0.00 | 0.00 | 84 | 1012.8 |
| 20260903131428 | 19 | 61 | 6.4 | 9.7 | 0.00 | 0.00 | 0.00 | 84 | 1012.8 |
| 20260903130922 | 19 | 128 | 4.8 | 4.8 | 0.00 | 0.00 | 0.00 | 83 | 1012.4 |
| 20260903130416 | 19 | 346 | 0.0 | 4.8 | 0.00 | 0.00 | 0.00 | 83 | 1012.8 |
| 20260903125909 | 19 | 9 | 1.6 | 6.4 | 0.00 | 0.00 | 0.00 | 83 | 1012.8 |
| 20260903125403 | 19 | 327 | 1.6 | 6.4 | 0.00 | 0.00 | 0.00 | 83 | 1012.8 |
| 20260903124857 | 19 | 70 | 4.8 | 9.7 | 0.00 | 0.00 | 0.00 | 83 | 1012.8 |
| 20260903124349 | 19 | 29 | 4.8 | 9.7 | 0.00 | 0.00 | 0.00 | 83 | 1012.8 |
| 20260903123337 | 19 | 24 | 4.8 | 9.7 | 0.00 | 0.00 | 0.00 | 83 | 1012.4 |
| 20260903122830 | 19 | 33 | 6.4 | 9.7 | 0.00 | 0.00 | 0.00 | 83 | 1012.4 |
| 20260903122324 | 19 | 38 | 3.2 | 9.7 | 0.00 | 0.00 | 0.00 | 83 | 1012.4 |
| 20260903121311 | 19 | 354 | 3.2 | 9.7 | 0.00 | 0.00 | 0.00 | 82 | 1012.8 |
| 20260903120804 | 19 | 25 | 3.2 | 6.4 | 0.00 | 0.00 | 0.00 | 82 | 1012.4 |
| 20260903120258 | 19 | 54 | 3.2 | 4.8 | 0.00 | 0.00 | 0.00 | 82 | 1012.4 |
| 20260903115751 | 19 | 19 | 3.2 | 4.8 | 0.00 | 0.00 | 0.00 | 81 | 1012.8 |
| 20260903115245 | 18 | 357 | 3.2 | 6.4 | 0.00 | 0.00 | 0.00 | 81 | 1012.8 |
| 20260903114738 | 18 | 356 | 3.2 | 6.4 | 0.00 | 0.00 | 0.00 | 81 | 1012.8 |
| 20260903114231 | 18 | 44 | 3.2 | 6.4 | 0.00 | 0.00 | 0.00 | 81 | 1012.8 |
| 20260903113725 | 18 | 32 | 4.8 | 4.8 | 0.00 | 0.00 | 0.00 | 81 | 1012.8 |
| 20260903112713 | 18 | 27 | 3.2 | 6.4 | 0.00 | 0.00 | 0.00 | 80 | 1012.8 |
| 20260903112206 | 18 | 10 | 3.2 | 6.4 | 0.00 | 0.00 | 0.00 | 81 | 1012.8 |
| 20260903111659 | 18 | 9 | 3.2 | 6.4 | 0.00 | 0.00 | 0.00 | 81 | 1012.8 |
| 20260903111153 | 18 | 42 | 1.6 | 6.4 | 0.00 | 0.00 | 0.00 | 81 | 1012.8 |
| 20260903110647 | 18 | 19 | 3.2 | 9.7 | 0.00 | 0.00 | 0.00 | 81 | 1012.8 |
| 20260903110141 | 18 | 10 | 3.2 | 9.7 | 0.00 | 0.00 | 0.00 | 81 | 1012.8 |
| 20260903105634 | 18 | 12 | 3.2 | 6.4 | 0.00 | 0.00 | 0.00 | 81 | 1012.8 |
| 20260903104621 | 18 | 329 | 1.6 | 4.8 | 0.00 | 0.00 | 0.00 | 82 | 1012.8 |
| 20260903103607 | 18 | 71 | 4.8 | 6.4 | 0.00 | 0.00 | 0.00 | 81 | 1012.8 |
| 20260903103101 | 18 | 35 | 3.2 | 6.4 | 0.00 | 0.00 | 0.00 | 81 | 1012.8 |
| 20260903102554 | 18 | 3 | 3.2 | 9.7 | 0.00 | 0.00 | 0.00 | 80 | 1012.8 |
| 20260903102048 | 18 | 42 | 3.2 | 9.7 | 0.00 | 0.00 | 0.00 | 80 | 1012.8 |
| 20260903101543 | 18 | 19 | 4.8 | 6.4 | 0.00 | 0.00 | 0.00 | 80 | 1013.1 |
| 20260903101035 | 18 | 20 | 3.2 | 6.4 | 0.00 | 0.00 | 0.00 | 80 | 1012.8 |
| 20260903100528 | 18 | 10 | 3.2 | 6.4 | 0.00 | 0.00 | 0.00 | 79 | 1012.8 |
| 20260903100022 | 18 | 349 | 3.2 | 6.4 | 0.00 | 0.00 | 0.00 | 79 | 1013.1 |
| 20260903095516 | 18 | 356 | 3.2 | 6.4 | 0.00 | 0.00 | 0.00 | 79 | 1012.8 |
| 20260903094502 | 18 | 29 | 4.8 | 6.4 | 0.00 | 0.00 | 0.00 | 78 | 1013.1 |
| 20260903093956 | 18 | 42 | 4.8 | 6.4 | 0.00 | 0.00 | 0.00 | 78 | 1013.1 |
| 20260903093450 | 18 | 30 | 6.4 | 6.4 | 0.00 | 0.00 | 0.00 | 78 | 1012.8 |
| 20260903092436 | 18 | 19 | 4.8 | 6.4 | 0.00 | 0.00 | 0.00 | 77 | 1013.1 |
| 20260903091930 | 18 | 18 | 4.8 | 6.4 | 0.00 | 0.00 | 0.00 | 77 | 1013.4 |
| 20260903091424 | 18 | 22 | 4.8 | 6.4 | 0.00 | 0.00 | 0.00 | 77 | 1013.1 |
| 20260903090919 | 18 | 30 | 4.8 | 6.4 | 0.00 | 0.00 | 0.00 | 76 | 1013.4 |
| 20260903090411 | 18 | 14 | 4.8 | 4.8 | 0.00 | 0.00 | 0.00 | 76 | 1013.4 |
| 20260903085904 | 18 | 359 | 3.2 | 6.4 | 0.00 | 0.00 | 0.00 | 76 | 1013.1 |
| 20260903085357 | 18 | 339 | 1.6 | 6.4 | 0.00 | 0.00 | 0.00 | 76 | 1013.4 |
| 20260903084851 | 18 | 339 | 1.6 | 4.8 | 0.00 | 0.00 | 0.00 | 75 | 1013.4 |
| 20260903084345 | 18 | 0 | 1.6 | 4.8 | 0.00 | 0.00 | 0.00 | 75 | 1013.4 |
| 20260903083839 | 18 | 6 | 3.2 | 4.8 | 0.00 | 0.00 | 0.00 | 75 | 1013.4 |
| 20260903083332 | 18 | 343 | 1.6 | 4.8 | 0.00 | 0.00 | 0.00 | 74 | 1013.4 |
| 20260903082825 | 19 | 353 | 1.6 | 4.8 | 0.00 | 0.00 | 0.00 | 74 | 1013.4 |
| 20260903082319 | 19 | 339 | 3.2 | 6.4 | 0.00 | 0.00 | 0.00 | 74 | 1013.4 |
| 20260903081813 | 19 | 4 | 4.8 | 6.4 | 0.00 | 0.00 | 0.00 | 73 | 1013.4 |
| 20260903080800 | 18 | 17 | 3.2 | 6.4 | 0.00 | 0.00 | 0.00 | 73 | 1013.4 |
| 20260903080253 | 18 | 6 | 1.6 | 3.2 | 0.00 | 0.00 | 0.00 | 72 | 1013.4 |
| 20260903075746 | 18 | 334 | 1.6 | 3.2 | 0.00 | 0.00 | 0.00 | 71 | 1013.4 |
| 20260903075240 | 18 | 328 | 1.6 | 4.8 | 0.00 | 0.00 | 0.00 | 71 | 1013.8 |
| 20260903074734 | 19 | 331 | 1.6 | 4.8 | 0.00 | 0.00 | 0.00 | 71 | 1013.4 |
| 20260903073721 | 18 | 1 | 1.6 | 4.8 | 0.00 | 0.00 | 0.00 | 71 | 1013.4 |
| 20260903073214 | 18 | 336 | 0.0 | 4.8 | 0.00 | 0.00 | 0.00 | 71 | 1013.8 |
| 20260903072708 | 18 | 13 | 1.6 | 4.8 | 0.00 | 0.00 | 0.00 | 71 | 1013.4 |
| 20260903072202 | 18 | 339 | 1.6 | 3.2 | 0.00 | 0.00 | 0.00 | 71 | 1013.4 |
| 20260903071654 | 18 | 336 | 3.2 | 3.2 | 0.00 | 0.00 | 0.00 | 71 | 1013.4 |
| 20260903070642 | 18 | 323 | 1.6 | 1.6 | 0.00 | 0.00 | 0.00 | 69 | 1013.4 |
| 20260903070135 | 19 | 323 | 0.0 | 3.2 | 0.00 | 0.00 | 0.00 | 69 | 1013.4 |
| 20260903065628 | 19 | 310 | 0.0 | 3.2 | 0.00 | 0.00 | 0.00 | 68 | 1013.8 |
| 20260903065122 | 19 | 332 | 0.0 | 3.2 | 0.00 | 0.00 | 0.00 | 68 | 1013.4 |
| 20260903064616 | 19 | 339 | 1.6 | 3.2 | 0.00 | 0.00 | 0.00 | 68 | 1013.4 |
| 20260903064109 | 19 | 337 | 1.6 | 3.2 | 0.00 | 0.00 | 0.00 | 68 | 1013.4 |
| 20260903063603 | 19 | 333 | 1.6 | 3.2 | 0.00 | 0.00 | 0.00 | 68 | 1013.4 |
| 20260903063056 | 19 | 348 | 1.6 | 3.2 | 0.00 | 0.00 | 0.00 | 68 | 1013.4 |
| 20260903062550 | 19 | 321 | 1.6 | 1.6 | 0.00 | 0.00 | 0.00 | 68 | 1013.4 |
| 20260903062043 | 19 | 340 | 1.6 | 1.6 | 0.00 | 0.00 | 0.00 | 68 | 1013.4 |
| 20260903061537 | 20 | 326 | 1.6 | 4.8 | 0.00 | 0.00 | 0.00 | 68 | 1013.4 |
| 20260903061030 | 20 | 355 | 1.6 | 4.8 | 0.00 | 0.00 | 0.00 | 67 | 1013.4 |
| 20260903060524 | 20 | 6 | 3.2 | 4.8 | 0.00 | 0.00 | 0.00 | 67 | 1013.4 |
| 20260903060017 | 20 | 25 | 3.2 | 3.2 | 0.00 | 0.00 | 0.00 | 68 | 1013.4 |
| 20260903055511 | 20 | 354 | 1.6 | 3.2 | 0.00 | 0.00 | 0.00 | 70 | 1013.4 |
| 20260903053951 | 20 | 335 | 0.0 | 0.0 | 0.00 | 0.00 | 0.00 | 70 | 1013.1 |
| 20260903053446 | 20 | 335 | 0.0 | 1.6 | 0.00 | 0.00 | 0.00 | 70 | 1013.4 |
| 20260903052938 | 20 | 335 | 0.0 | 1.6 | 0.00 | 0.00 | 0.00 | 70 | 1013.4 |
| 20260903052432 | 20 | 334 | 1.6 | 1.6 | 0.00 | 0.00 | 0.00 | 70 | 1013.1 |
| 20260903051926 | 20 | 313 | 0.0 | 1.6 | 0.00 | 0.00 | 0.00 | 70 | 1013.4 |
| 20260903050912 | 20 | 310 | 1.6 | 3.2 | 0.00 | 0.00 | 0.00 | 69 | 1013.4 |
| 20260903045859 | 20 | 317 | 0.0 | 3.2 | 0.00 | 0.00 | 0.00 | 68 | 1013.1 |
| 20260903044846 | 21 | 355 | 1.6 | 4.8 | 0.00 | 0.00 | 0.00 | 68 | 1013.4 |
| 20260903044340 | 21 | 0 | 3.2 | 4.8 | 0.00 | 0.00 | 0.00 | 68 | 1013.4 |
| 20260903043833 | 21 | 3 | 1.6 | 6.4 | 0.00 | 0.00 | 0.00 | 68 | 1013.4 |
| 20260903043327 | 21 | 23 | 1.6 | 9.7 | 0.00 | 0.00 | 0.00 | 68 | 1013.1 |
| 20260903042821 | 21 | 43 | 6.4 | 9.7 | 0.00 | 0.00 | 0.00 | 68 | 1013.1 |
| 20260903042314 | 21 | 39 | 4.8 | 9.7 | 0.00 | 0.00 | 0.00 | 68 | 1013.1 |
| 20260903041301 | 21 | 27 | 6.4 | 6.4 | 0.00 | 0.00 | 0.00 | 67 | 1013.1 |
| 20260903040755 | 21 | 48 | 6.4 | 6.4 | 0.00 | 0.00 | 0.00 | 67 | 1013.1 |
| 20260903035235 | 21 | 19 | 3.2 | 9.7 | 0.00 | 0.00 | 0.00 | 66 | 1013.1 |
| 20260903034223 | 21 | 41 | 4.8 | 6.4 | 0.00 | 0.00 | 0.00 | 66 | 1012.8 |
| 20260903033716 | 21 | 340 | 1.6 | 9.7 | 0.00 | 0.00 | 0.00 | 66 | 1012.8 |
| 20260903033209 | 21 | 43 | 4.8 | 11.3 | 0.00 | 0.00 | 0.00 | 66 | 1012.8 |
| 20260903032702 | 21 | 44 | 6.4 | 11.3 | 0.00 | 0.00 | 0.00 | 66 | 1012.8 |
| 20260903031649 | 21 | 19 | 4.8 | 9.7 | 0.00 | 0.00 | 0.00 | 65 | 1012.4 |
| 20260903031143 | 21 | 19 | 4.8 | 9.7 | 0.00 | 0.00 | 0.00 | 67 | 1012.4 |
| 20260903030637 | 21 | 18 | 1.6 | 9.7 | 0.00 | 0.00 | 0.00 | 66 | 1012.4 |
| 20260903030130 | 22 | 11 | 3.2 | 9.7 | 0.00 | 0.00 | 0.00 | 66 | 1012.4 |
| 20260903025117 | 21 | 59 | 3.2 | 6.4 | 0.00 | 0.00 | 0.00 | 65 | 1012.8 |
| 20260903024611 | 21 | 35 | 3.2 | 6.4 | 0.00 | 0.00 | 0.00 | 64 | 1012.4 |
| 20260903024104 | 21 | 71 | 4.8 | 6.4 | 0.00 | 0.00 | 0.00 | 63 | 1012.4 |
| 20260903023557 | 21 | 51 | 3.2 | 4.8 | 0.00 | 0.00 | 0.00 | 63 | 1012.4 |
| 20260903020519 | 22 | 321 | 0.0 | 3.2 | 0.00 | 0.00 | 0.00 | 62 | 1012.4 |
| 20260903020012 | 22 | 276 | 0.0 | 4.8 | 0.00 | 0.00 | 0.00 | 62 | 1012.4 |
| 20260903014958 | 22 | 237 | 3.2 | 6.4 | 0.00 | 0.00 | 0.00 | 62 | 1012.4 |
| 20260903014452 | 22 | 260 | 3.2 | 12.9 | 0.00 | 0.00 | 0.00 | 62 | 1012.8 |
| 20260903013946 | 22 | 246 | 4.8 | 12.9 | 0.00 | 0.00 | 0.00 | 63 | 1012.8 |